Regional Weather Roundup
Issued by NWS Raleigh/Durham, NC

Home | Current Version | Previous Version | Text Only | Print | Product List | Glossary On
Versions: 1 2 3 4 5 6 7 8 9 10 11 12 13 14 15 16 17 18 19 20 21 22 23 24 25 26 27 28 29 30 31 32 33 34 35 36 37 38 39 40 41 42 43 44 45 46 47 48 49 50
000
ASUS42 KRAH 091410
RWRRAH
NORTH CAROLINA WEATHER ROUNDUP
NATIONAL WEATHER SERVICE RALEIGH NC
900 AM EST TUE FEB 09 2016

NOTE: "FAIR" INDICATES FEW OR NO CLOUDS BELOW 12,000 FEET WITH NO
SIGNIFICANT WEATHER AND/OR OBSTRUCTIONS TO VISIBILITY.

NCZ001-053-055-056-065-067-091500-
WESTERN NORTH CAROLINA

CITY           SKY/WX    TMP DP  RH WIND       PRES   REMARKS
ASHEVILLE      FLURRIES  26  12  55 N8        29.69R WCI  18
JEFFERSON      CLOUDY    23  11  60 W29G38    29.53S WCI   6
MORGANTON      CLOUDY    32  15  49 W5        29.72S WCI  28
HICKORY        CLOUDY    32  15  49 W10       29.67S WCI  24
RUTHERFORDTON  CLOUDY    33  13  43 W8G17     29.72R WCI  25
MOUNT AIRY     CLOUDY    33  21  61 NW5       29.67R WCI  29
BOONE          LGT SNOW  20  13  74 W10G16    29.60S WCI   8
$$

NCZ021-022-025-041-071-084-088-091500-
CENTRAL NORTH CAROLINA

CITY           SKY/WX    TMP DP  RH WIND       PRES   REMARKS
CHARLOTTE      CLOUDY    34  19  54 SW6       29.72R WCI  29
GREENSBORO     CLOUDY    35  23  61 W10       29.65R WCI  27
WINSTON-SALEM  CLOUDY    34  20  56 W8        29.67R WCI  27
RALEIGH-DURHAM CLOUDY    37  30  75 W5        29.66R WCI  33
FORT BRAGG     CLOUDY    39  34  81 SW13      29.68R WCI  31
FAYETTEVILLE   CLOUDY    39  33  79 SW14      29.70R WCI  31
BURLINGTON     CLOUDY    37  25  61 W10       29.65R WCI  30
LAURINBURG     SUNNY     37  26  64 W10       29.73R WCI  30
$$

NCZ011-015-027-028-043-044-047-080-103-091500-
NORTHEASTERN NORTH CAROLINA

CITY           SKY/WX    TMP DP  RH WIND       PRES   REMARKS
ROCKY MT-WILSO CLOUDY    39  32  76 W6        29.66R WCI  35
GREENVILLE     PTSUNNY   39  36  87 W6        29.69R WCI  35
WASHINGTON     MOSUNNY   41  35  77 CALM      29.65R
ELIZABETH CITY PTSUNNY   40  37  89 W13       29.61R WCI  32
MANTEO         MOSUNNY   41  38  91 W9        29.60S
CAPE HATTERAS  MOSUNNY   44  39  82 W10G16    29.62R
$$

NCZ078-087-090-091-093-098-101-091500-
SOUTHEASTERN NORTH CAROLINA

CITY           SKY/WX    TMP DP  RH WIND       PRES   REMARKS
LUMBERTON      PTSUNNY   38  28  67 W12       29.73R WCI  30
GOLDSBORO      MOSUNNY   39  39 100 W10       29.66R WCI  32
KINSTON        SUNNY     39  39 100 W7        29.68R WCI  34
KENANSVILLE    CLOUDY    39  37  93 SW10      29.70R WCI  32
NEW BERN       PTSUNNY   40  38  93 W8        29.68S WCI  34
CHERRY POINT   PTSUNNY   41  39  93 W13       29.68R
BEAUFORT       PTSUNNY   43  38  82 W12       29.68R
JACKSONVILLE   PTSUNNY   42  37  82 W12       29.69R
WILMINGTON     MOSUNNY   43  33  68 W15       29.72R
$$




USA.gov is the U.S. government's official web portal to all federal, state and local government web resources and services.